TimeEST,TemperatureF,Dew PointF,Humidity,Sea Level PressureIn,VisibilityMPH,Wind Direction,Wind SpeedMPH,Gust SpeedMPH,PrecipitationIn,Events,Conditions,WindDirDegrees,DateUTC
12:52 AM,42.8,42.8,100,30.07,0.2,WSW,3.5,-,N/A,Fog,Fog,250,2012-12-09 05:52:00
12:54 AM,43.0,42.1,97,30.08,0.2,West,4.6,-,N/A,Fog,Fog,270,2012-12-09 05:54:00
1:54 AM,43.0,42.1,97,30.10,0.5,Calm,Calm,-,N/A,Fog,Fog,0,2012-12-09 06:54:00
2:08 AM,42.8,42.8,100,30.10,0.2,Calm,Calm,-,N/A,Fog,Fog,0,2012-12-09 07:08:00
2:54 AM,41.0,39.9,96,30.13,0.2,WNW,3.5,-,N/A,Fog,Fog,290,2012-12-09 07:54:00
3:05 AM,41.0,39.2,93,30.12,0.5,WNW,4.6,-,N/A,Fog,Fog,290,2012-12-09 08:05:00
3:29 AM,42.8,41.0,93,30.13,1.8,Calm,Calm,-,N/A,,Overcast,0,2012-12-09 08:29:00
3:40 AM,42.8,41.0,93,30.13,2.0,West,4.6,-,N/A,,Mostly Cloudy,260,2012-12-09 08:40:00
3:49 AM,41.0,39.2,93,30.13,8.0,West,4.6,-,N/A,,Mostly Cloudy,280,2012-12-09 08:49:00
3:54 AM,39.9,39.0,97,30.14,8.0,West,4.6,-,N/A,,Mostly Cloudy,280,2012-12-09 08:54:00
4:39 AM,41.0,35.6,81,30.14,10.0,Calm,Calm,-,N/A,,Partly Cloudy,0,2012-12-09 09:39:00
4:54 AM,39.9,35.1,83,30.17,10.0,Variable,3.5,-,N/A,,Scattered Clouds,0,2012-12-09 09:54:00
5:18 AM,39.2,33.8,81,30.17,10.0,NW,3.5,-,N/A,,Mostly Cloudy,310,2012-12-09 10:18:00
5:54 AM,39.9,34.0,79,30.21,10.0,Calm,Calm,-,N/A,,Overcast,0,2012-12-09 10:54:00
6:29 AM,39.2,32.0,75,30.21,10.0,NNE,8.1,-,N/A,,Scattered Clouds,30,2012-12-09 11:29:00
6:54 AM,39.9,30.9,70,30.22,10.0,NNE,9.2,-,N/A,,Scattered Clouds,20,2012-12-09 11:54:00
7:54 AM,37.0,32.0,82,30.24,10.0,Calm,Calm,-,N/A,,Clear,0,2012-12-09 12:54:00
8:54 AM,37.9,32.0,79,30.25,10.0,Calm,Calm,-,N/A,,Clear,0,2012-12-09 13:54:00
9:54 AM,39.0,30.0,70,30.26,10.0,ESE,3.5,-,N/A,,Mostly Cloudy,120,2012-12-09 14:54:00
10:54 AM,39.9,30.0,68,30.25,10.0,Calm,Calm,-,N/A,,Overcast,0,2012-12-09 15:54:00
11:54 AM,39.9,30.0,68,30.22,10.0,Calm,Calm,-,N/A,,Overcast,0,2012-12-09 16:54:00
12:54 PM,39.9,30.0,68,30.20,10.0,Calm,Calm,-,0.00,Rain,Light Rain,0,2012-12-09 17:54:00
1:54 PM,41.0,30.9,67,30.18,10.0,Calm,Calm,-,0.00,,Overcast,0,2012-12-09 18:54:00
2:02 PM,41.0,30.2,65,30.16,10.0,Calm,Calm,-,N/A,,Overcast,0,2012-12-09 19:02:00
2:26 PM,41.0,30.2,65,30.15,10.0,East,3.5,-,N/A,,Overcast,80,2012-12-09 19:26:00
2:54 PM,41.0,32.0,70,30.17,10.0,East,4.6,-,N/A,,Overcast,90,2012-12-09 19:54:00
3:05 PM,41.0,32.0,70,30.15,10.0,East,4.6,-,N/A,,Overcast,100,2012-12-09 20:05:00
3:54 PM,39.0,35.1,86,30.15,10.0,ENE,9.2,-,0.00,Rain,Light Rain,70,2012-12-09 20:54:00
4:15 PM,39.2,35.6,87,30.13,10.0,ENE,12.7,-,0.00,,Overcast,70,2012-12-09 21:15:00
4:54 PM,39.0,36.0,89,30.13,7.0,ENE,8.1,-,0.00,,Overcast,60,2012-12-09 21:54:00
5:54 PM,39.0,37.0,93,30.12,5.0,NE,5.8,-,0.00,,Drizzle,50,2012-12-09 22:54:00
6:54 PM,39.9,37.0,89,30.09,5.0,NE,12.7,18.4,0.01,Rain,Rain,50,2012-12-09 23:54:00
7:54 PM,39.9,37.0,89,30.07,8.0,ENE,11.5,-,0.06,Rain,Light Rain,70,2012-12-10 00:54:00
8:54 PM,39.9,37.0,89,30.06,8.0,Variable,6.9,17.3,0.01,Rain,Light Rain,0,2012-12-10 01:54:00
9:22 PM,41.0,37.4,87,30.02,7.0,East,8.1,-,0.02,Rain,Light Rain,80,2012-12-10 02:22:00
9:30 PM,41.0,37.4,87,30.01,8.0,East,9.2,-,0.02,Rain,Light Rain,100,2012-12-10 02:30:00
9:54 PM,41.0,37.9,89,30.02,10.0,Variable,5.8,-,0.02,,Overcast,0,2012-12-10 02:54:00
10:12 PM,41.0,37.4,87,30.00,10.0,NE,10.4,-,N/A,,Overcast,50,2012-12-10 03:12:00
10:32 PM,41.0,37.4,87,29.99,10.0,East,5.8,-,N/A,,Overcast,80,2012-12-10 03:32:00
10:54 PM,41.0,37.9,89,29.99,10.0,ENE,5.8,-,N/A,,Overcast,60,2012-12-10 03:54:00
11:54 PM,41.0,37.9,89,29.97,10.0,Variable,5.8,-,0.01,,Overcast,0,2012-12-10 04:54:00